Regional Weather Roundup
Issued by NWS

Home | Current Version | Previous Version | Graphics & Text | Print | Product List | Glossary On
Versions: 1 2 3 4 5 6 7 8 9 10 11 12 13 14 15 16 17 18 19 20 21 22 23 24 25 26 27 28 29 30 31 32 33 34 35 36 37 38 39 40 41 42 43 44 45 46 47 48 49 50
000
ASUS43 KIND 040159
RWRIN

WEATHER ROUNDUP FOR INDIANA
NATIONAL WEATHER SERVICE INDIANAPOLIS IN
1000 PM EDT THU SEP 03 2015

NOTE: "FAIR" INDICATES FEW OR NO CLOUDS BELOW 12,000 FEET WITH NO
SIGNIFICANT WEATHER AND/OR OBSTRUCTIONS TO VISIBILITY.

* - STATION DOES NOT REPORT WEATHER SUCH AS PRECIPITATION OR FOG.

+ - STATION NOT QUALITY CONTROLLED BY THE NATIONAL WEATHER SERVICE.
    USE DATA WITH CAUTION...ESPECIALLY DEWPOINT AND RELATIVE
    HUMIDITY OBSERVATIONS.

INZ001>003-010>013-019-020-040300-
NORTHWEST INDIANA

CITY           SKY/WX    TMP DP  RH WIND       PRES   REMARKS
GARY /AIRPORT/ PTCLDY    73  70  88 N12       29.93R
RENSSELAER +   CLEAR     75  72  88 SW5       29.93R

$$

LMZ046-743>745-040300-
SOUTHERN LAKE MICHIGAN

STATION/POSITION TIME  TEMP    WIND        PRES    WAVE
                       AIR SEA DIR/SP/G            HT
                 (UTC) (F)     (DEG/KT/KT) (MB)    (FT)
BURNS HARBOR     0100   74      40/ 16     1012.9R
MICHIGAN CITY    0100   72      20/ 17/ 18   N/A
5NW MICH CITY    0100   73 74   50/ 14/ 17   N/A     1

$$

INZ004-005-014>016-021>024-040300-
NORTH CENTRAL INDIANA

CITY           SKY/WX    TMP DP  RH WIND       PRES   REMARKS
GOSHEN         CLEAR     77  69  76 SW8       29.90S
SOUTH BEND     PTCLDY    76  69  79 NW7       29.91R
WARSAW +       CLEAR     77  68  73 CALM      29.92R

$$

INZ006>009-017-018-025>027-040300-
NORTHEAST INDIANA

CITY           SKY/WX    TMP DP  RH WIND       PRES   REMARKS
ANGOLA *+      CLEAR     75  70  83 CALM      29.92R
FORT WAYNE     PTCLDY    75  68  78 SW8       29.93R

$$

INZ028-029-035-036-043>045-051>053-040300-
WEST CENTRAL INDIANA

CITY           SKY/WX    TMP DP  RH WIND       PRES   REMARKS
CRAWFORDSVL +  CLEAR     71  66  84 CALM      29.95R
GREENCASTLE +  CLEAR     72  66  83 CALM      29.96S
LAFAYETTE      PTCLDY    76  68  76 CALM      29.93R
TERRE HAUTE    CLEAR     74  67  78 CALM      29.95R

$$

INZ030>032-037>040-046>048-054>057-064-065-040300-
CENTRAL INDIANA

CITY           SKY/WX    TMP DP  RH WIND       PRES   REMARKS
COLUMBUS       CLEAR     73  64  73 CALM      29.96R
FRANKFORT +    CLEAR     73  70  89 S3        29.97R
GREENWOOD *+   PTCLDY    77  64  65 SW3       29.97R
INDIANAPOLIS   CLEAR     78  66  66 SW6       29.95R
-EAGLE CREEK   CLEAR     79  67  66 CALM      29.95R
KOKOMO *+      PTCLDY    75  57  53 SW5       29.94R
MT COMFORT *+  CLEAR     75  63  64 SW5       29.96S
SHELBYVILLE    CLEAR     74  68  81 S5        29.95R
ZIONSVILLE +   CLEAR     72  67  85 CALM      29.96S

$$

INZ033-034-041-042-049-050-058-059-040300-
EAST CENTRAL INDIANA

CITY           SKY/WX    TMP DP  RH WIND       PRES   REMARKS
MUNCIE         CLEAR     77  68  73 SW6       29.95R

$$

INZ060-061-067>069-081>083-085>088-040300-
SOUTHWEST INDIANA

CITY           SKY/WX    TMP DP  RH WIND       PRES   REMARKS
EVANSVILLE     CLEAR     79  69  71 CALM      29.96R
HUNTINGBURG *+ CLEAR     73  66  78 CALM      29.96R

$$

INZ062-063-066-070>080-084-089>092-040300-
SOUTH CENTRAL AND SOUTHEAST INDIANA

CITY           SKY/WX    TMP DP  RH WIND       PRES   REMARKS
BLOOMINGTON    CLEAR     72  69  90 CALM      29.97R
MADISON *+     CLEAR     72  68  88 CALM      30.00R
SEYMOUR +      CLEAR     72  66  83 CALM      29.96R

$$



USA.gov is the U.S. government's official web portal to all federal, state and local government web resources and services.